Volver al catálogo

STARLINK-11320

ActivoComunicacionesVLEO
NORAD 61942·PAYLOAD·🇺🇸 United States

Lanzado Nov 14, 2024 desde Vandenberg Space Force Base

Loading…

Próximos Pases (próximas 24 horas)

TLE

ActualizadoSource: CelesTrak SupGP

Época: Sep 15, 2026, 02:00 UTC

1 61942C 24209D   26258.08381944  .00007425  00000+0  61150-4 0  2581
2 61942  53.1568 157.9587 0001184  77.8777 143.2870 15.69709914    18

Sigue STARLINK-11320 en tiempo real con AllMySat

Download on the App Store